N72ME NY35-KBDR

Flight info

Callsign N72ME
Flight time 0h 25m
Altitude 7500
Route DIRECT
Aircraft C404/L-VGD/C

Departure

Time 2026-05-08 02:08
Airport Stanton Airport (NY35)

Arrival

Time 2026-05-08 02:34
Airport Igor I Sikorsky Memorial Airport (KBDR)
Time Latitude Longitude Altitude Speed Heading
2026-05-08 02:02 41.75300 -74.11504 310 ft 0 kts 324°
2026-05-08 02:05 41.75301 -74.11505 310 ft 1 kts 315°
2026-05-08 02:05 41.75301 -74.11509 312 ft 1 kts 255°
2026-05-08 02:05 41.75306 -74.11550 317 ft 10 kts 287°
2026-05-08 02:06 41.75347 -74.11658 322 ft 15 kts 308°
2026-05-08 02:06 41.75397 -74.11739 326 ft 6 kts 295°
2026-05-08 02:06 41.75403 -74.11755 328 ft 0 kts 327°
2026-05-08 02:06 41.75408 -74.11751 329 ft 1 kts 75°
2026-05-08 02:07 41.75407 -74.11749 329 ft 0 kts 127°
2026-05-08 02:07 41.75380 -74.11707 325 ft 21 kts 131°
2026-05-08 02:07 41.75152 -74.11361 300 ft 78 kts 131°
2026-05-08 02:07 41.74723 -74.10658 317 ft 108 kts 128°
2026-05-08 02:08 41.74222 -74.09913 513 ft 105 kts 131°
2026-05-08 02:08 41.73692 -74.09212 663 ft 113 kts 134°
2026-05-08 02:08 41.73091 -74.08504 894 ft 114 kts 140°
2026-05-08 02:08 41.72509 -74.07709 971 ft 131 kts 118°
2026-05-08 02:09 41.72034 -74.06660 1289 ft 127 kts 121°
2026-05-08 02:09 41.71545 -74.05714 1647 ft 121 kts 123°
2026-05-08 02:09 41.71047 -74.04809 1880 ft 121 kts 125°
2026-05-08 02:09 41.70531 -74.03909 2119 ft 122 kts 127°
2026-05-08 02:10 41.70008 -74.03007 2358 ft 123 kts 126°
2026-05-08 02:10 41.69445 -74.02055 2391 ft 141 kts 128°
2026-05-08 02:10 41.68793 -74.00966 2400 ft 159 kts 128°
2026-05-08 02:10 41.68081 -73.99760 2401 ft 170 kts 127°
2026-05-08 02:11 41.67328 -73.98472 2396 ft 180 kts 127°
2026-05-08 02:11 41.66541 -73.97128 2392 ft 186 kts 127°
2026-05-08 02:11 41.65732 -73.95750 2387 ft 190 kts 127°
2026-05-08 02:11 41.64913 -73.94350 2387 ft 192 kts 127°
2026-05-08 02:12 41.64093 -73.92954 2387 ft 195 kts 127°
2026-05-08 02:12 41.63249 -73.91512 2390 ft 199 kts 127°
2026-05-08 02:12 41.62380 -73.90046 2393 ft 204 kts 128°
2026-05-08 02:12 41.61505 -73.88539 2386 ft 204 kts 126°
2026-05-08 02:13 41.60638 -73.87049 2378 ft 201 kts 128°
2026-05-08 02:13 41.59779 -73.85620 2372 ft 194 kts 127°
2026-05-08 02:13 41.58958 -73.84223 2368 ft 188 kts 127°
2026-05-08 02:13 41.58288 -73.83076 2367 ft 185 kts 127°
2026-05-08 02:14 41.57764 -73.82181 2370 ft 184 kts 127°
2026-05-08 02:14 41.57240 -73.81291 2372 ft 183 kts 127°
2026-05-08 02:14 41.56454 -73.79958 2365 ft 182 kts 127°
2026-05-08 02:14 41.55674 -73.78630 2370 ft 182 kts 127°
2026-05-08 02:15 41.54878 -73.77283 2379 ft 187 kts 128°
2026-05-08 02:15 41.54046 -73.75898 2382 ft 196 kts 127°
2026-05-08 02:15 41.53218 -73.74460 2381 ft 198 kts 126°
2026-05-08 02:15 41.52362 -73.73014 2373 ft 199 kts 128°
2026-05-08 02:16 41.51494 -73.71573 2366 ft 199 kts 128°
2026-05-08 02:16 41.50655 -73.70133 2356 ft 193 kts 126°
2026-05-08 02:16 41.50138 -73.69239 2353 ft 190 kts 127°
2026-05-08 02:16 41.49331 -73.67876 2356 ft 186 kts 127°
2026-05-08 02:17 41.48555 -73.66570 2355 ft 184 kts 127°
2026-05-08 02:17 41.47762 -73.65235 2361 ft 183 kts 127°
2026-05-08 02:17 41.46976 -73.63908 2374 ft 182 kts 127°
2026-05-08 02:17 41.46193 -73.62584 2376 ft 182 kts 126°
2026-05-08 02:18 41.45674 -73.61709 2377 ft 181 kts 126°
2026-05-08 02:18 41.44896 -73.60395 2381 ft 180 kts 126°
2026-05-08 02:18 41.44119 -73.59085 2379 ft 180 kts 126°
2026-05-08 02:18 41.43084 -73.57342 2385 ft 181 kts 127°
2026-05-08 02:19 41.42303 -73.56025 2381 ft 181 kts 127°
2026-05-08 02:19 41.41776 -73.55137 2379 ft 181 kts 127°
2026-05-08 02:19 41.41003 -73.53833 2380 ft 182 kts 127°
2026-05-08 02:19 41.40223 -73.52515 2384 ft 180 kts 127°
2026-05-08 02:20 41.39440 -73.51207 2384 ft 181 kts 127°
2026-05-08 02:20 41.38657 -73.49890 2379 ft 181 kts 127°
2026-05-08 02:20 41.37873 -73.48573 2382 ft 181 kts 127°
2026-05-08 02:20 41.37090 -73.47255 2385 ft 181 kts 127°
2026-05-08 02:21 41.36306 -73.45939 2387 ft 182 kts 127°
2026-05-08 02:21 41.35518 -73.44622 2382 ft 181 kts 128°
2026-05-08 02:21 41.34738 -73.43308 2385 ft 181 kts 127°
2026-05-08 02:21 41.33955 -73.41995 2389 ft 181 kts 127°
2026-05-08 02:22 41.33184 -73.40699 2385 ft 182 kts 127°
2026-05-08 02:22 41.32396 -73.39382 2385 ft 182 kts 127°
2026-05-08 02:22 41.31609 -73.38067 2381 ft 182 kts 127°
2026-05-08 02:22 41.30799 -73.36786 2379 ft 182 kts 140°
2026-05-08 02:23 41.29635 -73.36190 2380 ft 181 kts 171°
2026-05-08 02:23 41.28395 -73.35897 2380 ft 181 kts 171°
2026-05-08 02:23 41.27158 -73.35609 2381 ft 180 kts 171°
2026-05-08 02:23 41.25920 -73.35322 2383 ft 181 kts 171°
2026-05-08 02:24 41.24678 -73.35035 2381 ft 181 kts 171°
2026-05-08 02:24 41.23437 -73.34750 2381 ft 181 kts 171°
2026-05-08 02:24 41.22195 -73.34467 2372 ft 181 kts 171°
2026-05-08 02:24 41.20951 -73.34180 2368 ft 182 kts 171°
2026-05-08 02:25 41.19708 -73.33890 2371 ft 181 kts 168°
2026-05-08 02:25 41.18556 -73.33222 2371 ft 182 kts 146°
2026-05-08 02:25 41.17584 -73.32149 2371 ft 182 kts 137°
2026-05-08 02:25 41.16654 -73.31015 2369 ft 181 kts 137°
2026-05-08 02:26 41.15726 -73.29880 2371 ft 181 kts 136°
2026-05-08 02:26 41.14810 -73.28762 2372 ft 181 kts 137°
2026-05-08 02:26 41.13881 -73.27643 2379 ft 181 kts 136°
2026-05-08 02:26 41.12957 -73.26499 2380 ft 181 kts 136°
2026-05-08 02:27 41.12030 -73.25364 2381 ft 182 kts 136°
2026-05-08 02:27 41.11098 -73.24226 2383 ft 182 kts 136°
2026-05-08 02:27 41.10169 -73.23091 2382 ft 182 kts 136°
2026-05-08 02:27 41.09237 -73.21959 2382 ft 181 kts 137°
2026-05-08 02:28 41.08304 -73.20820 2318 ft 185 kts 136°
2026-05-08 02:28 41.07503 -73.19484 2176 ft 188 kts 107°
2026-05-08 02:28 41.07585 -73.17805 2038 ft 186 kts 61°
2026-05-08 02:28 41.08339 -73.16438 1940 ft 183 kts 48°
2026-05-08 02:29 41.09154 -73.15139 1857 ft 182 kts 48°
2026-05-08 02:29 41.09940 -73.13892 1744 ft 175 kts 47°
2026-05-08 02:29 41.10711 -73.12673 1602 ft 171 kts 48°
2026-05-08 02:29 41.11471 -73.11474 1438 ft 169 kts 47°
2026-05-08 02:30 41.12222 -73.10293 1289 ft 167 kts 47°
2026-05-08 02:30 41.12968 -73.09121 1132 ft 166 kts 48°
2026-05-08 02:30 41.13711 -73.07957 991 ft 165 kts 47°
2026-05-08 02:30 41.14440 -73.06817 882 ft 150 kts 48°
2026-05-08 02:31 41.15067 -73.05853 755 ft 123 kts 45°
2026-05-08 02:31 41.15758 -73.05403 447 ft 111 kts
2026-05-08 02:31 41.16472 -73.05641 278 ft 101 kts 328°
2026-05-08 02:31 41.16952 -73.06282 237 ft 98 kts 308°
2026-05-08 02:32 41.17350 -73.07013 260 ft 98 kts 304°
2026-05-08 02:32 41.17729 -73.07730 333 ft 94 kts 306°
2026-05-08 02:32 41.18086 -73.08518 391 ft 108 kts 276°
2026-05-08 02:32 41.17982 -73.09602 412 ft 127 kts 262°
2026-05-08 02:33 41.17673 -73.10707 397 ft 124 kts 225°
2026-05-08 02:33 41.17052 -73.11396 190 ft 114 kts 225°
2026-05-08 02:33 41.16511 -73.12124 37 ft 107 kts 225°
2026-05-08 02:33 41.16067 -73.12720 10 ft 68 kts 220°
2026-05-08 02:34 41.15963 -73.12854 12 ft 1 kts 294°
2026-05-08 02:34 41.16013 -73.12868 12 ft 16 kts 321°
2026-05-08 02:34 41.16046 -73.12906 13 ft 0 kts 310°
2026-05-08 02:35 41.16077 -73.12947 14 ft 10 kts 330°
2026-05-08 02:35 41.16169 -73.12880 13 ft 12 kts
2026-05-08 02:35 41.16217 -73.12926 13 ft 1 kts 358°
2026-05-08 02:35 41.16223 -73.12922 13 ft 0 kts 45°